DW9579 Weather Reports


time (UTC)temp
C
wind
direction
speed
KPH
gust
KPH
rain 1hr
cm
rain 24hr
cm
rain mn
cm
humidity
%
barometer
mb
20260506123929 13 303 6.4 11.3 0.00 0.00 0.00 75 1019.2
20260506122930 13 305 4.8 11.3 0.00 0.00 0.00 75 1019.2
20260506121931 13 305 8.0 11.3 0.00 0.00 0.00 75 1019.2
20260506120950 13 300 1.6 9.7 0.00 0.00 0.00 75 1019.1
20260506115938 13 298 3.2 9.7 0.00 0.00 0.00 75 1019.0
20260506114957 13 298 4.8 11.3 0.00 0.00 0.00 75 1019.0
20260506113934 13 302 6.4 12.9 0.00 0.00 0.00 75 1018.9
20260506112936 13 301 0.0 9.7 0.00 0.00 0.00 76 1018.8
20260506111935 13 303 3.2 9.7 0.00 0.00 0.00 76 1018.8
20260506110933 13 303 3.2 11.3 0.00 0.00 0.00 76 1018.7
20260506110002 13 302 1.6 11.3 0.00 0.00 0.00 75 1018.7
20260506104939 13 301 3.2 12.9 0.00 0.00 0.00 75 1018.7
20260506103941 13 295 3.2 9.7 0.00 0.00 0.00 75 1018.7
20260506102940 13 293 4.8 11.3 0.00 0.00 0.00 76 1018.5
20260506101938 13 294 3.2 12.9 0.00 0.00 0.00 76 1018.5
20260506100937 13 296 8.0 14.5 0.00 0.00 0.00 76 1018.4
20260506095930 13 306 6.4 11.3 0.00 0.03 0.00 76 1018.6
20260506094949 13 305 4.8 9.7 0.00 0.03 0.00 76 1018.6
20260506093948 13 304 1.6 8.0 0.00 0.03 0.00 76 1018.5
20260506092926 13 304 0.0 8.0 0.00 0.03 0.00 76 1018.5
20260506091931 13 304 1.6 6.4 0.00 0.03 0.00 76 1018.5
20260506090932 13 304 3.2 8.0 0.00 0.03 0.00 76 1018.4
20260506085948 13 303 1.6 6.4 0.00 0.13 0.00 76 1018.5
20260506085006 13 303 4.8 9.7 0.00 0.13 0.00 76 1018.5
20260506083945 13 303 1.6 9.7 0.00 0.13 0.00 76 1018.5
20260506083004 13 304 4.8 11.3 0.00 0.13 0.00 75 1018.7
20260506081947 13 292 4.8 9.7 0.00 0.13 0.00 75 1018.7
20260506080944 13 290 1.6 12.9 0.00 0.13 0.00 75 1018.6
20260506072955 13 284 6.4 9.7 0.00 0.25 0.13 76 1018.3
20260506071932 13 282 1.6 9.7 0.00 0.25 0.13 76 1018.3
20260506070933 13 282 6.4 14.5 0.00 0.25 0.13 76 1018.3
20260506061943 13 276 8.0 14.5 0.00 0.30 0.13 76 1017.8
20260506060944 13 277 9.7 14.5 0.00 0.30 0.13 76 1017.9
20260506050943 13 280 8.0 16.1 0.00 0.36 0.13 76 1017.4
20260506044931 14 265 9.7 16.1 0.00 0.38 0.13 76 1017.3
20260506043950 14 263 12.9 19.3 0.00 0.38 0.13 76 1017.2
20260506042934 14 258 12.9 17.7 0.00 0.38 0.13 76 1017.1
20260506041932 14 261 11.3 17.7 0.00 0.38 0.13 76 1017.1
20260506040953 13 282 11.3 16.1 0.00 0.38 0.13 76 1016.8
20260506035941 14 273 6.4 16.1 0.00 0.38 0.13 75 1016.7
20260506033945 14 268 11.3 20.9 0.00 0.38 0.13 75 1016.3
20260506032943 14 252 12.9 19.3 0.00 0.38 0.13 76 1016.2
20260506031944 14 257 12.9 19.3 0.00 0.38 0.13 76 1016.2
20260506031005 14 254 16.1 20.9 0.00 0.38 0.13 76 1015.9
20260506025934 14 256 14.5 20.9 0.00 0.38 0.13 76 1015.9
20260506024936 15 267 12.9 20.9 0.00 0.38 0.13 75 1015.9
20260506023953 15 267 12.9 24.1 0.00 0.38 0.13 75 1015.9
20260506022931 15 254 19.3 25.7 0.00 0.38 0.13 75 1015.7
20260506021931 15 258 17.7 27.4 0.00 0.38 0.13 75 1015.7
20260506020930 15 257 20.9 27.4 0.00 0.38 0.13 73 1015.6
20260506015943 15 259 17.7 27.4 0.00 0.38 0.13 74 1015.4
20260506014925 15 267 16.1 24.1 0.00 0.38 0.13 73 1015.4
20260506013946 16 264 16.1 22.5 0.00 0.38 0.13 72 1015.4
20260506012945 15 263 16.1 22.5 0.00 0.38 0.13 72 1015.5
20260506011929 15 277 14.5 22.5 0.00 0.38 0.13 72 1015.5
20260506010931 16 261 16.1 22.5 0.00 0.38 0.13 72 1015.4
20260506010005 16 266 16.1 20.9 0.00 0.38 0.13 73 1015.2
20260506004945 16 272 14.5 22.5 0.00 0.38 0.13 72 1015.2
20260506003943 15 265 12.9 22.5 0.00 0.38 0.13 74 1015.2
20260506002945 15 263 16.1 22.5 0.00 0.38 0.13 72 1015.1
20260506001944 15 264 16.1 22.5 0.00 0.38 0.13 73 1015.1
20260506000927 15 261 17.7 24.1 0.00 0.38 0.13 73 1015.1
20260505235940 15 282 17.7 24.1 0.00 0.38 0.13 73 1015.2
20260505234938 15 275 14.5 22.5 0.00 0.38 0.13 74 1015.2
20260505233943 16 255 16.1 22.5 0.00 0.38 0.13 73 1015.2
20260505232940 16 272 16.1 22.5 0.00 0.38 0.13 72 1015.2
20260505231942 16 271 16.1 25.7 0.00 0.38 0.13 72 1015.2
20260505230944 16 264 14.5 22.5 0.00 0.38 0.13 72 1015.2
20260505225940 16 273 14.5 20.9 0.00 0.38 0.13 72 1015.2
20260505224941 16 274 14.5 24.1 0.00 0.38 0.13 72 1015.2
20260505223941 16 276 16.1 20.9 0.00 0.38 0.13 73 1015.1
20260505222943 16 274 14.5 22.5 0.00 0.38 0.13 74 1015.2
20260505221946 16 274 12.9 25.7 0.00 0.38 0.13 74 1015.2
20260505221005 16 281 17.7 24.1 0.00 0.38 0.13 74 1015.2
20260505215933 15 254 19.3 24.1 0.00 0.38 0.13 75 1015.3
20260505214931 15 260 17.7 25.7 0.00 0.38 0.13 75 1015.3
20260505213930 15 267 14.5 22.5 0.00 0.38 0.13 74 1015.5
20260505212932 15 269 17.7 24.1 0.00 0.38 0.13 74 1015.5
20260505211931 15 264 16.1 22.5 0.00 0.38 0.13 73 1015.5
20260505210929 15 269 12.9 19.3 0.00 0.38 0.13 73 1015.5
20260505205944 15 271 11.3 17.7 0.00 0.38 0.13 73 1015.5
20260505204942 15 279 6.4 24.1 0.00 0.38 0.13 72 1015.5
20260505204004 15 280 9.7 17.7 0.00 0.38 0.13 74 1015.5
20260505202946 15 290 8.0 14.5 0.00 0.38 0.13 72 1015.6
20260505201943 15 280 8.0 16.1 0.00 0.38 0.13 73 1015.6
20260505201001 15 272 9.7 17.7 0.00 0.38 0.13 73 1015.7
20260505195951 15 268 11.3 16.1 0.00 0.38 0.13 73 1015.7
20260505194932 15 281 12.9 19.3 0.00 0.38 0.13 73 1015.7
20260505193935 15 267 11.3 17.7 0.00 0.38 0.13 74 1015.8
20260505192933 15 284 9.7 19.3 0.00 0.38 0.13 74 1015.8
20260505191931 15 279 12.9 19.3 0.00 0.38 0.13 74 1015.8
20260505190933 15 271 12.9 22.5 0.00 0.38 0.13 74 1015.5
20260505185946 15 266 16.1 22.5 0.00 0.38 0.13 74 1015.6
20260505184943 15 268 11.3 19.3 0.00 0.38 0.13 73 1015.6
20260505183942 15 279 11.3 14.5 0.00 0.38 0.13 74 1015.6
20260505182940 15 298 4.8 14.5 0.00 0.38 0.13 75 1015.7
20260505181943 14 288 8.0 12.9 0.00 0.38 0.13 75 1015.7
20260505180941 14 294 3.2 11.3 0.00 0.38 0.13 76 1015.4
20260505175930 14 288 6.4 14.5 0.00 0.38 0.13 76 1015.3
20260505174931 13 288 8.0 16.1 0.00 0.38 0.13 76 1015.3
20260505173932 14 288 9.7 16.1 0.00 0.38 0.13 76 1015.2
20260505172931 13 291 6.4 12.9 0.00 0.38 0.13 76 1015.2
20260505171929 13 290 8.0 14.5 0.00 0.38 0.13 77 1015.2
20260505170931 13 292 8.0 16.1 0.00 0.38 0.13 76 1015.2
20260505165926 13 289 11.3 19.3 0.00 0.38 0.13 77 1015.2
20260505164932 13 282 8.0 19.3 0.00 0.38 0.13 77 1015.2
20260505163934 13 289 6.4 14.5 0.00 0.38 0.13 77 1015.2
20260505162935 13 294 9.7 14.5 0.00 0.38 0.13 77 1015.1
20260505161932 13 290 3.2 11.3 0.00 0.38 0.13 78 1015.1
20260505160935 13 296 6.4 11.3 0.00 0.38 0.13 78 1014.9
20260505152942 12 284 11.3 19.3 0.00 0.38 0.13 80 1014.7
20260505151926 12 294 8.0 14.5 0.00 0.38 0.13 79 1014.7
20260505150929 13 287 9.7 19.3 0.00 0.38 0.13 78 1014.5
20260505124937 12 269 6.4 16.1 0.00 0.38 0.13 77 1014.0